RYR45C EGCC-EIDW

Flight info

Callsign RYR45C
Flight time 0h 36m
Altitude 28000
Route ASMIM L975 WAL L10 PENIL/N0415F240 L28 LELDO M145 BAGSO BAGSO3R
Aircraft B738/M-SDE2E3FGHIRWXY/LB1

Departure

Time 2026-05-04 11:40
Airport Manchester Airport (EGCC)

Arrival

Time 2026-05-04 12:17
Airport Dublin Airport (EIDW)
Time Latitude Longitude Altitude Speed Heading
2026-05-04 11:16 53.36010 -2.26930 254 ft 0 kts 314°
2026-05-04 11:29 53.36010 -2.26929 254 ft 1 kts 314°
2026-05-04 11:29 53.35994 -2.26898 254 ft 4 kts 300°
2026-05-04 11:29 53.35986 -2.26859 254 ft 4 kts 259°
2026-05-04 11:29 53.35995 -2.26836 254 ft 1 kts 196°
2026-05-04 11:31 53.35995 -2.26835 254 ft 0 kts 196°
2026-05-04 11:34 53.35991 -2.26837 254 ft 6 kts 195°
2026-05-04 11:34 53.35940 -2.26838 254 ft 10 kts 174°
2026-05-04 11:34 53.35879 -2.26880 254 ft 10 kts 227°
2026-05-04 11:35 53.35841 -2.26971 254 ft 9 kts 235°
2026-05-04 11:35 53.35804 -2.27060 254 ft 9 kts 235°
2026-05-04 11:35 53.35768 -2.27145 254 ft 9 kts 231°
2026-05-04 11:35 53.35730 -2.27226 254 ft 9 kts 231°
2026-05-04 11:36 53.35693 -2.27303 254 ft 8 kts 231°
2026-05-04 11:36 53.35657 -2.27379 253 ft 8 kts 232°
2026-05-04 11:36 53.35622 -2.27453 254 ft 8 kts 232°
2026-05-04 11:36 53.35587 -2.27525 254 ft 9 kts 231°
2026-05-04 11:37 53.35543 -2.27615 252 ft 11 kts 231°
2026-05-04 11:37 53.35489 -2.27726 249 ft 13 kts 231°
2026-05-04 11:37 53.35458 -2.27878 246 ft 15 kts 263°
2026-05-04 11:37 53.35397 -2.28018 242 ft 16 kts 226°
2026-05-04 11:38 53.35312 -2.28157 238 ft 18 kts 224°
2026-05-04 11:38 53.35223 -2.28323 233 ft 20 kts 231°
2026-05-04 11:38 53.35131 -2.28516 227 ft 22 kts 231°
2026-05-04 11:38 53.35027 -2.28720 221 ft 24 kts 224°
2026-05-04 11:39 53.34907 -2.28925 225 ft 24 kts 228°
2026-05-04 11:39 53.34777 -2.29072 209 ft 23 kts 182°
2026-05-04 11:40 53.37393 -2.23305 1941 ft 231 kts 51°
2026-05-04 11:41 53.38449 -2.21315 3032 ft 232 kts 37°
2026-05-04 11:41 53.40016 -2.20413 3542 ft 253 kts 358°
2026-05-04 11:41 53.41677 -2.21414 4381 ft 260 kts 322°
2026-05-04 11:41 53.42742 -2.23854 4855 ft 266 kts 288°
2026-05-04 11:42 53.43156 -2.26892 4985 ft 269 kts 284°
2026-05-04 11:42 53.43707 -2.29881 5001 ft 267 kts 291°
2026-05-04 11:42 53.44409 -2.32760 5000 ft 266 kts 294°
2026-05-04 11:42 53.45181 -2.35588 5005 ft 266 kts 296°
2026-05-04 11:43 53.45998 -2.38369 5004 ft 266 kts 297°
2026-05-04 11:43 53.46792 -2.41181 4992 ft 267 kts 288°
2026-05-04 11:43 53.46950 -2.44263 5000 ft 267 kts 264°
2026-05-04 11:43 53.46636 -2.47328 5002 ft 267 kts 259°
2026-05-04 11:44 53.46276 -2.50396 5004 ft 268 kts 259°
2026-05-04 11:44 53.45919 -2.53469 5009 ft 269 kts 259°
2026-05-04 11:44 53.45571 -2.56557 4995 ft 270 kts 260°
2026-05-04 11:44 53.45226 -2.59648 4999 ft 270 kts 260°
2026-05-04 11:45 53.44999 -2.61694 5001 ft 269 kts 260°
2026-05-04 11:45 53.44656 -2.64786 4990 ft 269 kts 260°
2026-05-04 11:45 53.44200 -2.68908 5395 ft 274 kts 260°
2026-05-04 11:45 53.43853 -2.72041 6521 ft 272 kts 260°
2026-05-04 11:46 53.43506 -2.75167 7572 ft 275 kts 261°
2026-05-04 11:46 53.43153 -2.78348 8568 ft 279 kts 260°
2026-05-04 11:46 53.42915 -2.80481 9220 ft 282 kts 260°
2026-05-04 11:46 53.42547 -2.83780 10185 ft 286 kts 260°
2026-05-04 11:47 53.42170 -2.87163 10661 ft 309 kts 260°
2026-05-04 11:47 53.41756 -2.90862 10870 ft 337 kts 260°
2026-05-04 11:47 53.41307 -2.94852 11262 ft 356 kts 260°
2026-05-04 11:47 53.40849 -2.98913 12012 ft 361 kts 259°
2026-05-04 11:48 53.40378 -3.03064 12922 ft 364 kts 259°
2026-05-04 11:48 53.39895 -3.07310 13767 ft 369 kts 259°
2026-05-04 11:48 53.39701 -3.11564 14463 ft 375 kts 275°
2026-05-04 11:48 53.40324 -3.15812 15192 ft 379 kts 293°
2026-05-04 11:49 53.41680 -3.19609 15941 ft 382 kts 305°
2026-05-04 11:49 53.43252 -3.23251 16633 ft 388 kts 306°
2026-05-04 11:49 53.44864 -3.26921 17299 ft 393 kts 306°
2026-05-04 11:49 53.46493 -3.30648 18025 ft 397 kts 306°
2026-05-04 11:50 53.48122 -3.34423 18670 ft 401 kts 306°
2026-05-04 11:50 53.49757 -3.38249 19299 ft 405 kts 306°
2026-05-04 11:50 53.51398 -3.42117 19933 ft 408 kts 306°
2026-05-04 11:50 53.53047 -3.46024 20525 ft 412 kts 306°
2026-05-04 11:51 53.54713 -3.49981 21098 ft 416 kts 306°
2026-05-04 11:51 53.56390 -3.53968 21667 ft 420 kts 306°
2026-05-04 11:51 53.58085 -3.58004 22232 ft 423 kts 307°
2026-05-04 11:51 53.59791 -3.62070 22786 ft 427 kts 307°
2026-05-04 11:52 53.61460 -3.66232 23316 ft 432 kts 302°
2026-05-04 11:52 53.62772 -3.70738 23795 ft 437 kts 294°
2026-05-04 11:52 53.63892 -3.75527 24251 ft 440 kts 293°
2026-05-04 11:52 53.64989 -3.80362 24684 ft 443 kts 293°
2026-05-04 11:53 53.66123 -3.85288 25121 ft 446 kts 294°
2026-05-04 11:53 53.67256 -3.90101 25541 ft 449 kts 294°
2026-05-04 11:53 53.68420 -3.95000 25957 ft 451 kts 295°
2026-05-04 11:53 53.69609 -3.99917 26354 ft 454 kts 295°
2026-05-04 11:55 53.72754 -4.37620 28084 ft 470 kts 276°
2026-05-04 11:56 53.73146 -4.48620 28085 ft 469 kts 276°
2026-05-04 11:56 53.73334 -4.54063 28071 ft 457 kts 276°
2026-05-04 11:56 53.73510 -4.59306 28057 ft 437 kts 276°
2026-05-04 11:56 53.73677 -4.64345 28059 ft 420 kts 276°
2026-05-04 11:57 53.73836 -4.69123 27986 ft 407 kts 277°
2026-05-04 11:57 53.73995 -4.73871 27261 ft 404 kts 276°
2026-05-04 11:57 53.74151 -4.78587 26491 ft 401 kts 276°
2026-05-04 11:57 53.74303 -4.83268 25760 ft 398 kts 276°
2026-05-04 11:58 53.74455 -4.87919 25025 ft 395 kts 275°
2026-05-04 11:58 53.74608 -4.92527 24326 ft 392 kts 275°
2026-05-04 11:58 53.74759 -4.97100 23631 ft 388 kts 275°
2026-05-04 11:58 53.74908 -5.01639 22815 ft 385 kts 275°
2026-05-04 11:59 53.75053 -5.06142 22016 ft 382 kts 274°
2026-05-04 11:59 53.75181 -5.10602 21232 ft 378 kts 271°
2026-05-04 11:59 53.74991 -5.15019 20459 ft 376 kts 262°
2026-05-04 11:59 53.74497 -5.19329 19329 ft 382 kts 259°
2026-05-04 12:00 53.73906 -5.23808 18101 ft 389 kts 258°
2026-05-04 12:00 53.73300 -5.28227 16789 ft 392 kts 257°
2026-05-04 12:00 53.72683 -5.32720 15528 ft 393 kts 258°
2026-05-04 12:00 53.72071 -5.37211 14301 ft 392 kts 258°
2026-05-04 12:01 53.71466 -5.41693 13019 ft 390 kts 258°
2026-05-04 12:01 53.70871 -5.46137 11734 ft 387 kts 258°
2026-05-04 12:02 53.67579 -5.70702 6685 ft 322 kts 257°
2026-05-04 12:03 53.67081 -5.74389 5673 ft 324 kts 258°
2026-05-04 12:03 53.66578 -5.78105 4658 ft 325 kts 258°
2026-05-04 12:03 53.66081 -5.81763 4243 ft 308 kts 258°
2026-05-04 12:03 53.65622 -5.85119 4210 ft 281 kts 258°
2026-05-04 12:04 53.65199 -5.88213 4194 ft 261 kts 258°
2026-05-04 12:04 53.64805 -5.91096 4391 ft 240 kts 258°
2026-05-04 12:04 53.64438 -5.93778 4862 ft 232 kts 258°
2026-05-04 12:04 53.64075 -5.96435 5381 ft 234 kts 258°
2026-05-04 12:05 53.63708 -5.99116 5898 ft 235 kts 258°
2026-05-04 12:05 53.63340 -6.01797 6419 ft 234 kts 257°
2026-05-04 12:05 53.62972 -6.04468 6915 ft 234 kts 257°
2026-05-04 12:05 53.62603 -6.07143 7414 ft 235 kts 257°
2026-05-04 12:06 53.62228 -6.09855 7927 ft 239 kts 258°
2026-05-04 12:06 53.61847 -6.12611 8080 ft 242 kts 258°
2026-05-04 12:06 53.61462 -6.15379 8097 ft 244 kts 258°
2026-05-04 12:06 53.61075 -6.18166 8115 ft 245 kts 258°
2026-05-04 12:07 53.60685 -6.20960 8086 ft 245 kts 257°
2026-05-04 12:07 53.60297 -6.23739 8078 ft 243 kts 258°
2026-05-04 12:07 53.59910 -6.26505 8084 ft 242 kts 258°
2026-05-04 12:07 53.59523 -6.29265 8085 ft 243 kts 257°
2026-05-04 12:08 53.59132 -6.32048 8087 ft 245 kts 258°
2026-05-04 12:08 53.58741 -6.34832 8080 ft 244 kts 258°
2026-05-04 12:08 53.58350 -6.37601 8078 ft 243 kts 258°
2026-05-04 12:08 53.57965 -6.40331 8083 ft 242 kts 258°
2026-05-04 12:09 53.57567 -6.43147 7533 ft 259 kts 257°
2026-05-04 12:09 53.57139 -6.46171 6802 ft 270 kts 257°
2026-05-04 12:09 53.56699 -6.49276 6058 ft 276 kts 257°
2026-05-04 12:09 53.56249 -6.52447 5280 ft 281 kts 258°
2026-05-04 12:10 53.55789 -6.55678 4550 ft 284 kts 258°
2026-05-04 12:10 53.55331 -6.58873 4187 ft 274 kts 258°
2026-05-04 12:10 53.54897 -6.61891 4044 ft 257 kts 258°
2026-05-04 12:10 53.54301 -6.64614 3896 ft 244 kts 237°
2026-05-04 12:11 53.53080 -6.66464 3723 ft 234 kts 209°
2026-05-04 12:11 53.51537 -6.67314 3320 ft 235 kts 188°
2026-05-04 12:11 53.49914 -6.67615 3065 ft 234 kts 185°
2026-05-04 12:11 53.48295 -6.67800 2995 ft 234 kts 177°
2026-05-04 12:12 53.46787 -6.66884 2998 ft 233 kts 137°
2026-05-04 12:12 53.45960 -6.64628 2983 ft 228 kts 102°
2026-05-04 12:12 53.45675 -6.62049 2972 ft 228 kts 96°
2026-05-04 12:12 53.45496 -6.59420 2965 ft 226 kts 94°
2026-05-04 12:13 53.45348 -6.56807 2957 ft 220 kts 94°
2026-05-04 12:14 53.44469 -6.41450 1818 ft 181 kts 94°
2026-05-04 12:15 53.44350 -6.39366 1566 ft 179 kts 93°
2026-05-04 12:15 53.44233 -6.37275 1329 ft 180 kts 93°
2026-05-04 12:15 53.44116 -6.35203 1088 ft 177 kts 93°
2026-05-04 12:15 53.44002 -6.33151 871 ft 177 kts 94°
2026-05-04 12:16 53.43884 -6.31086 630 ft 179 kts 94°
2026-05-04 12:16 53.43764 -6.29035 347 ft 180 kts 93°
2026-05-04 12:16 53.43663 -6.26959 215 ft 170 kts 94°
2026-05-04 12:16 53.43563 -6.25357 217 ft 102 kts 96°
2026-05-04 12:17 53.43519 -6.24607 213 ft 19 kts 106°
2026-05-04 12:17 53.43440 -6.24556 217 ft 0 kts 186°
2026-05-04 12:17 53.43403 -6.24561 211 ft 12 kts 180°
2026-05-04 12:18 53.43345 -6.24462 210 ft 13 kts 112°
2026-05-04 12:18 53.43269 -6.24405 215 ft 13 kts 183°
2026-05-04 12:18 53.43192 -6.24455 212 ft 12 kts 241°
2026-05-04 12:18 53.43153 -6.24559 210 ft 12 kts 185°
2026-05-04 12:19 53.43104 -6.24566 215 ft 4 kts 185°
2026-05-04 12:19 53.43084 -6.24569 215 ft 0 kts 185°
2026-05-04 12:19 53.43083 -6.24569 215 ft 0 kts 185°